Weather History for KEVW - January, 2014

Change the Weather History Date:

Monday, January 13, 2014

  Actual Average Record
Temperature  
Mean Temperature 25 °F 22 °F  
Max Temperature 30 °F 29 °F 39 °F (2003)
Min Temperature 20 °F 15 °F -11 °F (2007)
Degree Days  
Heating Degree Days 40 43  
Month to date heating degree days 546 569  
Since 1 July heating degree days 3858 4048  
Cooling Degree Days 0 0  
Month to date cooling degree days 0 0  
Year to date cooling degree days 0 0  
Moisture  
Dew Point 22 °F    
Average Humidity 83    
Maximum Humidity 96    
Minimum Humidity 69    
Precipitation  
Precipitation T in 0.01 in 0.15 in (2015)
Month to date precipitation 0.01 0.24  
Year to date precipitation 0.01 0.24  
Sea Level Pressure  
Sea Level Pressure 30.30 in    
Wind  
Wind Speed 25 mph (WSW)    
Max Wind Speed 43 mph    
Max Gust Speed 51 mph    
Visibility 7 miles    
Events Snow    
T = Trace of Precipitation, MM = Missing Value Source: NWS Daily Summary

Daily Weather History Graph

Daily Weather History Graph

Search for Another Location

Airport or City:

Trip Planner

Search our weather history database for the weather conditions in past years. The results will help you decide how hot, cold, wet, or windy it might be!

Date:

Astronomy

Jan. 13, 2014 Rise Set
Actual Time 7:48 AM MST 5:17 PM MST
Civil Twilight 7:17 AM MST 5:48 PM MST
Nautical Twilight 6:43 AM MST 6:22 PM MST
Astronomical Twilight 6:10 AM MST 6:55 PM MST
Moon 3:35 PM MST (1/13) 5:39 AM MST (1/13)
Length of Visible Light 10h 30m
Length of Day
9h 29m
Waxing Gibbous, 95% of the Moon is Illuminated
Jan 13
Waxing Gibbous
Jan 15
Full
Jan 23
Last Quarter
Jan 30
New
Feb 6
First Quarter

Hourly Weather History & Observations

Time (MST) Temp. Windchill Dew Point Humidity Pressure Visibility Wind Dir Wind Speed Gust Speed Precip Events Conditions
12:03 AM 21.9 °F 3.7 °F 19.9 °F 92% 30.19 in 2.5 mi WSW 31.1 mph - 0.00 in Snow Light Snow
12:16 AM 21.0 °F 2.4 °F 19.0 °F 92% 30.19 in 3.0 mi WSW 31.1 mph - 0.00 in Snow Light Snow
12:45 AM 21.9 °F 3.7 °F 19.0 °F 89% 30.18 in 3.0 mi WSW 31.1 mph - 0.00 in Snow Light Snow
12:53 AM 21.9 °F 4.8 °F 18.0 °F 85% 30.29 in 7.0 mi WSW 26.5 mph - 0.00 in Snow Light Snow
1:16 AM 21.0 °F 4.3 °F 18.0 °F 88% 30.18 in 10.0 mi WSW 24.2 mph - 0.00 in   Scattered Clouds
1:53 AM 21.9 °F 3.9 °F 18.0 °F 85% 30.30 in 10.0 mi WSW 29.9 mph - 0.00 in   Mostly Cloudy
2:09 AM 21.9 °F 5.1 °F 19.0 °F 89% 30.21 in 6.0 mi WSW 25.3 mph - 0.00 in Snow Light Snow
2:53 AM 23.0 °F 8.0 °F 18.0 °F 81% 30.32 in 10.0 mi WSW 20.7 mph - 0.00 in   Scattered Clouds
3:53 AM 23.0 °F 3.7 °F 19.0 °F 85% 30.30 in 3.0 mi WSW 38.0 mph 44.9 mph 0.00 in   Clear
3:59 AM 23.0 °F 3.9 °F 19.9 °F 88% 30.22 in 1.8 mi WSW 36.8 mph 44.9 mph 0.00 in Snow Light Snow
4:07 AM 23.0 °F 4.6 °F 19.9 °F 88% 30.22 in 3.0 mi West 33.4 mph 42.6 mph 0.00 in   Partly Cloudy
4:53 AM 24.1 °F 6.9 °F 19.9 °F 84% 30.35 in 9.0 mi WSW 29.9 mph - 0.00 in   Overcast
5:44 AM 23.0 °F 6.3 °F 21.0 °F 92% 30.25 in 6.0 mi SW 26.5 mph - 0.00 in Snow Light Snow
5:53 AM 23.0 °F 6.6 °F 21.0 °F 92% 30.36 in 9.0 mi WSW 25.3 mph - 0.00 in   Mostly Cloudy
6:17 AM 24.1 °F 7.1 °F 21.0 °F 88% 30.24 in 10.0 mi SW 28.8 mph 36.8 mph N/A   Mostly Cloudy
6:53 AM 25.0 °F 8.4 °F 21.0 °F 85% 30.35 in 4.0 mi SW 28.8 mph 34.5 mph 0.00 in Snow Light Snow
7:53 AM 25.0 °F 7.8 °F 21.9 °F 88% 30.34 in 9.0 mi WSW 31.1 mph - 0.00 in   Overcast
8:11 AM 26.1 °F 8.6 °F 23.0 °F 88% 30.25 in 3.0 mi WSW 34.5 mph 41.4 mph N/A   Overcast
8:51 AM 26.6 °F 13.1 °F 24.8 °F 93% 30.28 in 1.8 mi SW 19.6 mph 32.2 mph 0.00 in Snow Light Snow
8:53 AM 26.1 °F 11.6 °F 24.1 °F 92% 30.39 in 1.5 mi SW 21.9 mph 32.2 mph 0.00 in Snow Light Snow
9:04 AM 26.1 °F 14.0 °F 24.1 °F 92% 30.29 in 1.8 mi SSW 15.0 mph - 0.00 in Snow Light Snow
9:10 AM 26.1 °F 13.6 °F 24.1 °F 92% 30.29 in 1.5 mi SSW 16.1 mph - 0.00 in Snow Light Snow
9:14 AM 26.1 °F 12.7 °F 24.1 °F 92% 30.29 in 1.8 mi SW 18.4 mph - 0.00 in Snow Light Snow
9:31 AM 27.0 °F 12.5 °F 24.1 °F 89% 30.29 in 2.0 mi SW 23.0 mph 29.9 mph 0.00 in Snow Light Snow
9:50 AM 26.6 °F 11.7 °F 24.8 °F 93% 30.30 in 5.0 mi WSW 24.2 mph - 0.00 in Snow Light Snow
9:53 AM 28.0 °F 13.3 °F 24.1 °F 85% 30.40 in 6.0 mi WSW 25.3 mph - 0.00 in   Overcast
10:00 AM 27.0 °F 11.9 °F 24.1 °F 89% 30.30 in 7.0 mi WSW 25.3 mph - N/A   Mostly Cloudy
10:25 AM 28.0 °F 11.8 °F 23.0 °F 81% 30.30 in 5.0 mi WSW 32.2 mph 39.1 mph N/A   Haze
10:37 AM 28.0 °F 12.3 °F 24.1 °F 85% 30.30 in 5.0 mi WSW 29.9 mph - N/A   Mostly Cloudy
10:53 AM 28.0 °F 13.6 °F 24.1 °F 85% 30.40 in 9.0 mi WSW 24.2 mph - N/A   Overcast
11:32 AM 28.9 °F 12.3 °F 24.1 °F 82% 30.27 in 5.0 mi West 35.7 mph 42.6 mph N/A   Haze
11:38 AM 28.9 °F 11.1 °F 25.0 °F 85% 30.26 in 1.8 mi West 42.6 mph 50.6 mph 0.00 in   Partly Cloudy
11:45 AM 30.0 °F 13.8 °F 25.0 °F 82% 30.27 in 1.5 mi West 35.7 mph 50.6 mph 0.00 in   Clear
11:48 AM 30.2 °F 14.5 °F 24.8 °F 80% 30.28 in 2.0 mi West 33.4 mph 49.5 mph 0.00 in   Clear
11:53 AM 30.0 °F 15.7 °F 24.1 °F 79% 30.37 in 6.0 mi West 26.5 mph - 0.00 in   Clear
12:53 PM 30.0 °F 14.9 °F 24.1 °F 79% 30.34 in 10.0 mi WSW 29.9 mph - 0.00 in   Scattered Clouds
1:10 PM 28.9 °F 17.3 °F 24.1 °F 82% 30.27 in 10.0 mi WSW 16.1 mph - N/A   Mostly Cloudy
1:22 PM 28.9 °F 17.3 °F 24.1 °F 82% 30.27 in 10.0 mi SW 16.1 mph - N/A   Overcast
1:53 PM 30.0 °F 16.0 °F 24.1 °F 79% 30.34 in 10.0 mi WSW 25.3 mph 35.7 mph N/A   Overcast
2:22 PM 30.0 °F 18.3 °F 24.1 °F 79% 30.27 in 10.0 mi WSW 17.3 mph 27.6 mph N/A   Overcast
2:53 PM 30.0 °F 13.8 °F 23.0 °F 75% 30.28 in 10.0 mi WSW 35.7 mph 43.7 mph N/A   Mostly Cloudy
3:10 PM 28.9 °F 12.1 °F 23.0 °F 78% 30.23 in 10.0 mi WSW 36.8 mph 44.9 mph N/A   Scattered Clouds
3:53 PM 28.9 °F 14.8 °F 21.9 °F 75% 30.34 in 10.0 mi WSW 24.2 mph - N/A   Clear
4:53 PM 28.0 °F 15.3 °F 21.9 °F 78% 30.35 in 10.0 mi WSW 18.4 mph 26.5 mph N/A   Clear
5:43 PM 27.0 °F 16.1 °F 21.0 °F 78% 30.29 in 10.0 mi South 12.7 mph - N/A   Overcast
5:53 PM 27.0 °F 15.6 °F 21.9 °F 81% 30.39 in 10.0 mi South 13.8 mph - N/A   Overcast
6:53 PM 28.9 °F 15.4 °F 21.9 °F 75% 30.36 in 10.0 mi WSW 21.9 mph - N/A   Overcast
7:07 PM 28.9 °F 12.8 °F 21.0 °F 72% 30.28 in 10.0 mi West 33.4 mph 39.1 mph N/A   Mostly Cloudy
7:53 PM 28.0 °F 12.5 °F 21.0 °F 75% 30.36 in 10.0 mi West 28.8 mph - N/A   Clear
8:53 PM 28.0 °F 15.3 °F 21.0 °F 75% 30.40 in 10.0 mi WSW 18.4 mph - N/A   Mostly Cloudy
9:53 PM 27.0 °F 14.3 °F 19.0 °F 72% 30.39 in 10.0 mi WSW 17.3 mph - N/A   Clear
10:53 PM 27.0 °F 14.3 °F 19.0 °F 72% 30.39 in 10.0 mi WSW 17.3 mph 34.5 mph N/A   Clear
11:53 PM 25.0 °F 13.6 °F 18.0 °F 75% 30.43 in 10.0 mi WSW 12.7 mph - N/A   Clear